User: anonymous   Login
Location: NJAA Observatory
(40.6819°N, 74.8979°W)
Time: 09:01:37
(UTC-04:00)
Language:

Landsat 5 - Orbit

View from above orbital plane
View from above orbital plane
View from above satellite
View from above satellite

Ground track
Ground track

The orbit data is extracted from the following two-line orbital elements,

1 14780U 84021A   16125.83440862  .00000835  00000-0  83651-4 0  9998
2 14780  98.0216 224.4988 0092950  74.0356 287.1078 14.91103950715015
Epoch (UTC): 04 May 2016 20:01:32
Eccentricity: 0.0092950
inclination: 98.0216°
perigee height: 529 km
apogee height: 659 km
right ascension of ascending node: 224.4988°
argument of perigee: 74.0356°
revolutions per day: 14.91103950
mean anomaly at epoch: 287.1078°
orbit number at epoch: 71501

The dashed part of the orbit path shows where the satellite is in the earth's shadow,  

DLR